Savannah Hunter, GA

7:04 AM EDT on March 30, 2017 (GMT -0400)
Hunter Army Air Field

Weather History for KSVN - August, 2013

Change the Weather History Date:

Monday, August 19, 2013

  Actual Average Record
Temperature  
Mean Temperature 81 °F -  
Max Temperature 88 °F 88 °F 98 °F (1999)
Min Temperature 75 °F 71 °F 69 °F (1998)
Cooling Degree Days 16    
Growing Degree Days 31 (Base 50)    
Moisture  
Dew Point 76 °F    
Average Humidity 84    
Maximum Humidity 100    
Minimum Humidity 66    
Precipitation  
Precipitation 0.03 in - - ()
Sea Level Pressure  
Sea Level Pressure 30.07 in    
Wind  
Wind Speed 3 mph (SE)    
Max Wind Speed 14 mph    
Max Gust Speed 21 mph    
Visibility 9 miles    
Events Rain , Thunderstorm    
Averages and records for this station are not official NWS values.
T = Trace of Precipitation, MM = Missing Value Source: NWS Daily Summary

Daily Weather History Graph

Daily Weather History Graph

Search for Another Location

Airport or City:

Trip Planner

Search our weather history database for the weather conditions in past years. The results will help you decide how hot, cold, wet, or windy it might be!

Date:

Astronomy

Aug. 19, 2013 Rise Set
Actual Time 6:51 AM EDT 8:03 PM EDT
Civil Twilight 6:26 AM EDT 8:29 PM EDT
Nautical Twilight 5:55 AM EDT 8:59 PM EDT
Astronomical Twilight 5:24 AM EDT 9:30 PM EDT
Moon 6:53 PM EDT (8/19) 5:11 AM EDT (8/19)
Length of Visible Light 14h 02m
Length of Day
13h 11m
Waxing Gibbous, 97% of the Moon is Illuminated
Aug 19
Waxing Gibbous
Aug 20
Full
Aug 28
Last Quarter
Sep 5
New
Sep 12
First Quarter

Hourly Weather History & Observations

Time (EDT) Temp. Heat Index Dew Point Humidity Pressure Visibility Wind Dir Wind Speed Gust Speed Precip Events Conditions
12:58 AM 78.1 °F - 76.8 °F 96% 30.12 in 10.0 mi East 3.5 mph - N/A   Scattered Clouds
1:58 AM 77.0 °F - 76.5 °F 98% 30.11 in 10.0 mi Calm Calm - N/A   Clear
2:58 AM 76.6 °F - 76.5 °F 99% 30.09 in 10.0 mi Calm Calm - N/A   Clear
3:58 AM 76.3 °F - 75.7 °F 98% 30.08 in 10.0 mi Calm Calm - N/A   Clear
4:58 AM 75.9 °F - 75.7 °F 99% 30.07 in 9.0 mi Calm Calm - N/A   Clear
5:18 AM 75.2 °F - 75.2 °F 100% 30.06 in 10.0 mi East 2.3 mph - N/A   Clear
5:28 AM 75.2 °F - 75.2 °F 100% 30.06 in 8.0 mi NE 1.2 mph - N/A   Clear
5:38 AM 77.0 °F - 77.0 °F 100% 30.05 in 10.0 mi NE 2.3 mph - N/A   Clear
5:58 AM 76.5 °F - 76.1 °F 99% 30.07 in 10.0 mi Calm Calm - N/A   Clear
6:20 AM 75.2 °F - 75.2 °F 100% 30.06 in 10.0 mi ESE 2.3 mph - N/A Rain Light Rain
6:42 AM 75.2 °F - 75.2 °F 100% 30.06 in 10.0 mi ESE 1.2 mph - N/A   Clear
6:58 AM 75.4 °F - 75.2 °F 99% 30.08 in 10.0 mi West 1.2 mph - 0.00 in   Clear
7:58 AM 77.4 °F - 77.2 °F 99% 30.08 in 10.0 mi Calm Calm - N/A   Clear
8:58 AM 82.0 °F 90.8 °F 77.9 °F 87% 30.09 in 10.0 mi Variable 5.8 mph - N/A   Clear
9:58 AM 84.6 °F 94.3 °F 76.8 °F 77% 30.09 in 10.0 mi SE 6.9 mph - N/A   Scattered Clouds
10:33 AM 86.0 °F 96.9 °F 77.0 °F 74% 30.08 in 10.0 mi SSW 5.8 mph - N/A   Mostly Cloudy
10:43 AM 86.0 °F 95.1 °F 75.2 °F 70% 30.08 in 10.0 mi South 6.9 mph - N/A   Scattered Clouds
10:58 AM 84.6 °F 93.9 °F 76.3 °F 76% 30.10 in 10.0 mi SSW 5.8 mph - 0.01 in   Partly Cloudy
11:58 AM 87.4 °F 96.7 °F 75.0 °F 66% 30.09 in 10.0 mi South 6.9 mph - N/A   Partly Cloudy
12:55 PM 87.8 °F 97.6 °F 75.2 °F 66% 30.07 in 10.0 mi SE 4.6 mph - N/A   Partly Cloudy
1:34 PM 87.8 °F 97.6 °F 75.2 °F 66% 30.06 in 10.0 mi SE 9.2 mph - N/A Thunderstorm Thunderstorm
1:49 PM 87.8 °F 97.6 °F 75.2 °F 66% 30.06 in 6.0 mi SSW 13.8 mph 20.7 mph N/A   Haze
1:55 PM 87.8 °F 97.6 °F 75.2 °F 66% 30.05 in 2.5 mi South 10.4 mph 20.7 mph N/A   Haze
1:57 PM 87.8 °F 97.6 °F 75.2 °F 66% 30.06 in 2.5 mi South 8.1 mph - N/A   Haze
2:04 PM 86.0 °F 95.1 °F 75.2 °F 70% 30.06 in 3.0 mi South 6.9 mph - N/A   Haze
2:11 PM 84.2 °F 92.3 °F 75.2 °F 74% 30.06 in 6.0 mi Variable 5.8 mph - N/A   Light Drizzle
2:43 PM 78.8 °F - 77.0 °F 94% 30.05 in 10.0 mi Variable 2.3 mph - N/A Thunderstorm Light Drizzle
2:46 PM 80.6 °F 87.1 °F 77.0 °F 89% 30.05 in 10.0 mi SE 4.6 mph - N/A Thunderstorm Scattered Clouds
2:58 PM 82.8 °F 91.0 °F 76.3 °F 81% 30.05 in 10.0 mi SSE 5.8 mph - 0.00 in   Clear
3:58 PM 87.6 °F 98.2 °F 76.1 °F 68% 30.02 in 10.0 mi SSE 8.1 mph - 0.01 in   Clear
4:58 PM 84.7 °F 93.2 °F 75.2 °F 73% 30.02 in 10.0 mi SSE 8.1 mph - N/A   Clear
5:58 PM 84.0 °F 91.9 °F 75.0 °F 74% 30.03 in 10.0 mi ESE 5.8 mph - N/A   Clear
6:58 PM 83.5 °F 90.3 °F 74.1 °F 73% 30.04 in 10.0 mi ESE 4.6 mph - N/A   Clear
7:58 PM 81.3 °F 87.4 °F 74.8 °F 81% 30.05 in 10.0 mi Variable 4.6 mph - N/A   Clear
8:58 PM 77.2 °F - 72.9 °F 86% 30.06 in 10.0 mi North 2.3 mph - N/A   Clear
9:58 PM 76.1 °F - 72.7 °F 89% 30.08 in 10.0 mi ENE 1.2 mph - N/A   Partly Cloudy
10:58 PM 75.7 °F - 73.2 °F 92% 30.07 in 10.0 mi East 3.5 mph - N/A   Clear
11:58 PM 76.1 °F - 73.9 °F 93% 30.09 in 10.0 mi NNE 2.3 mph - 0.01 in   Partly Cloudy